Regional Weather Roundup
Issued by NWS

Home | Current Version | Previous Version | Graphics & Text | Print | Product List | Glossary On
Versions: 1 2 3 4 5 6 7 8 9 10 11 12 13 14 15 16 17 18 19 20 21 22 23 24 25 26 27 28 29 30 31 32 33 34 35 36 37 38 39 40 41 42 43 44 45 46 47 48 49 50
000
ASUS44 KMEG 221400
RWRTN
TENNESSEE HOURLY STATE WEATHER ROUNDUP
NATIONAL WEATHER SERVICE MEMPHIS TN
800 AM CST MON DEC 22 2014

TNZ002-004-019-021-049-052-054-088>092-221500-
WEST TENNESSEE

CITY           SKY/WX    TMP DP  RH WIND       PRES   REMARKS
MEMPHIS INTL   CLOUDY    51  48  89 S9        29.83F VSB 1
NWS MEMPHIS      N/A     51 N/A N/A MISG        N/A
JACKSON        CLOUDY    50  47  89 S10G17    29.84F
DYERSBURG      CLOUDY    48  36  61 S6        29.85S
UNION CITY     CLOUDY    45  45 100 SE6       29.83F
PARIS          CLOUDY    45  43  93 SE9       29.86F
LEXINGTON      MOCLDY    48  46  93 SE7       29.87F
SAVANNAH       CLOUDY    50  48  93 SE8       29.89S
$$

TNZ008-025-027-028-033-062-065-066-221500-
NORTH MIDDLE TENNESSEE

CITY           SKY/WX    TMP DP  RH WIND       PRES   REMARKS
NASHVILLE      CLOUDY    50  45  83 SE9       29.94F
CLARKSVILLE    CLOUDY    48  45  89 S6        29.91R
CROSSVILLE     CLOUDY    46  39  76 SE5       29.98F
$$

TNZ061-075-076-078-094-096-097-221500-
SOUTH MIDDLE TENNESSEE

CITY           SKY/WX    TMP DP  RH WIND       PRES   REMARKS
TULLAHOMA      CLOUDY    46  43  87 SE6       29.95F
WINCHESTER     CLOUDY    46  43  87 SE8       29.96F
SHELBYVILLE    CLOUDY    48  45  87 SE5       29.95F
$$

TNZ017-018-042-046-047-221500-
NORTHEAST TENNESSEE

CITY           SKY/WX    TMP DP  RH WIND       PRES   REMARKS
TRI CITIES     PTSUNNY   43  38  82 NE6       30.05F
ELIZABETHTON   MOSUNNY   45  37  76 E6        30.04F
$$

TNZ012-013-036-069-073-074-221500-
CENTRAL EAST TENNESSEE

CITY           SKY/WX    TMP DP  RH WIND       PRES   REMARKS
KNOXVILLE      NOT AVBL
OAK RIDGE      CLOUDY    46  38  73 E5        30.04S
GATLINBURG     SUNNY     36  34  93 CALM      30.02F
$$

TNZ083-085-099-221500-
SOUTHEAST TENNESSEE

CITY           SKY/WX    TMP DP  RH WIND       PRES   REMARKS
CHATTANOOGA    CLOUDY    47  41  80 CALM      30.02F
$$

SKY/WX REPORTED AS FAIR MEANS FEW OR NO CLOUDS BELOW
12 THOUSAND FEET.



USA.gov is the U.S. government's official web portal to all federal, state and local government web resources and services.